Other Surface Observations
Issued by NWS Charleston, SC

Home | Current Version | Previous Version | Text Only | Print | Product List | Glossary On
Versions: 1 2 3 4 5 6 7 8 9 10 11 12 13 14 15 16 17 18 19 20 21 22 23 24 25 26 27 28 29 30 31 32 33 34 35 36 37 38 39 40 41 42 43 44 45 46 47 48 49 50
000
SXUS52 KCHS 172312
OSOCHS

Marine Observations
National Weather Service Charleston SC
600 PM EST SAT FEB 17 2018

...Downtown Charleston and Harbor...

CITY           SKY/WX    TMP DP  RH WIND       PRES   REMARKS
Waterfront Prk   N/A     60  58  93 SE6       29.97R

...Lake Moultrie...

CITY           SKY/WX    TMP DP  RH WIND       PRES   REMARKS
Pinopolis        N/A     66  61  82 VRB2      30.01S

...Lake and Supplemental Coastal Observations...

STATION/POSITION TIME  TEMP    WIND        PRES    WAVE   SWELL
                       AIR SEA DIR/SP/G            HT/PER HT/PER/DIR
                 (UTC) (F)     (DEG/KT/KT) (MB)    (FT/S) (FT/S/D)
Fort Pulaski     2248   59 59  190/  6/  9 1020.0R
Sapelo Island    2200   67     150/  7     1020.0
Winyah Bay       2145   57      30/  3     1020.0
Lake Murray      2220   66     100/  4/  6 1016.6F
ACE Basin NERRS  2145   66     130/  4     1019.0


...C-MAN and Buoy Observations...

STATION/POSITION TIME  TEMP    WIND        PRES    WAVE   SWELL
                       AIR SEA DIR/SP/G            HT/PER HT/PER/DIR
                 (UTC) (F)     (DEG/KT/KT) (MB)    (FT/S) (FT/S/D)
Buoy 41004       2300   67 69  250/ 14/ 17 1019.7
Buoy 41008       2250   58 58  170/ 12/ 14 1019.9R   2/10   2/ 80/10
Folly Beach CMAN 2300   57     110/  8/  9 1020.4R
Pritchards Islan NOT AVBL
Capers NS Buoy   2208   55 56   50/  6/  8 1019.4R
Fripp NS Buoy    2208   55 56  150/  6/  8 1018.6F
5E St. Marys GA  2300      59                N/A     2/10   2/110/11


STATION/POSITION TIME  TEMP    WIND        PRES    WAVE   SWELL
                       AIR SEA DIR/SP/G            HT/PER HT/PER/DIR
                 (UTC) (F)     (DEG/KT/KT) (MB)    (FT/S) (FT/S/D)
Frying Pan Buoy  2300   67 64  190/  6/ 10 1019.1
Buoy 41025       2250   67 69  150/ 14/ 19 1019.6F   5/ 8   3/ 80/ 8
Cape Lookout NC  2300           20/  7/  9 1019.4F
Buoy 41002       2250   73 73  230/ 10/ 14 1020.9R   6/ 8   5/340/ 8
Buoy 41010       NOT AVBL
St Augustine FL  2300   70 60  160/  2/  2 1021.2R

$$




USA.gov is the U.S. government's official web portal to all federal, state and local government web resources and services.